Wind_Speed
2 3 5 8 6 3 2 2 3 3 1 3 7 16 19 17 24 23 24 18 14 12 9 10 15 18 20 22 28 31 29 33 25 24 26 26 24 18 15 14 12 13 17 27
3 5 4 4 5 4 2 1 4 5 2 3 5 21 15 8 11 22 27 22 15 13 9 10 14 18 20 23 28 32 32 33 22 22 21 21 21 16 12 11 11 11 15 27
5 1 4 3 3 3 2 4 3 4 6 3 8 9 5 3 1 10 19 17 13 12 9 9 13 17 19 22 26 30 33 28 21 19 18 18 19 15 11 5 6 9 18 31
4 2 4 2 2 4 2 3 3 1 4 3 5 5 6 4 6 2 15 15 15 10 6 7 12 15 18 20 22 27 31 28 21 17 17 20 16 13 9 4 3 4 23 25
4 5 3 2 3 5 3 4 3 2 1 3 4 3 8 5 5 6 10 16 13 10 6 5 10 13 15 18 22 27 30 26 18 18 18 14 15 11 5 4 5 14 17 16
1 0 3 4 2 3 5 3 4 4 2 2 3 4 6 3 5 3 5 18 15 13 7 3 7 10 12 16 20 26 28 22 15 15 16 11 11 11 10 10 8 17 13 15
1 2 1 4 4 3 2 3 2 4 2 4 2 1 10 6 6 5 8 18 18 14 8 2 4 8 11 15 19 25 26 21 17 14 14 11 9 9 12 12 12 14 14 15
6 3 7 3 3 4 5 5 4 5 2 3 2 6 6 3 6 7 8 18 18 15 10 4 1 6 9 12 16 20 24 20 15 13 15 13 13 13 15 12 13 13 12 10
5 1 2 2 1 2 4 4 2 5 2 3 3 7 7 3 2 4 12 18 19 16 12 7 2 4 6 9 12 16 23 22 16 12 11 10 15 18 17 12 9 11 18 17
5 4 1 1 1 2 3 3 3 2 2 4 5 5 6 5 8 7 8 19 20 16 13 9 5 3 4 6 8 10 15 19 20 13 13 11 13 19 22 20 15 14 18 15
3 3 1 2 6 8 3 2 1 2 4 4 2 6 6 5 6 11 12 25 23 20 17 12 7 5 4 3 7 8 11 14 17 19 18 17 15 15 25 23 24 26 26 31
3 3 4 4 1 1 3 6 6 4 5 2 1 7 5 4 5 12 20 27 24 21 19 15 10 8 7 5 8 9 9 12 13 16 20 26 29 29 31 36 37 37 36 35
7 1 2 5 3 2 5 5 4 4 3 6 5 6 1 3 4 7 15 22 25 24 23 20 16 12 11 9 9 8 8 11 13 15 17 20 23 26 26 28 29 32 33 35
6 4 6 7 3 4 5 6 6 5 4 3 10 6 6 6 7 7 12 18 25 27 28 25 21 17 15 13 10 10 13 12 12 13 16 19 21 24 24 25 25 26 26 27
3 5 2 3 3 2 4 4 9 13 14 8 5 16 21 11 9 17 20 19 25 31 32 30 27 23 20 19 17 15 13 14 15 13 10 14 17 19 20 21 21 21 20 21
1 2 3 4 3 7 6 9 12 16 19 18 14 29 12 20 15 12 22 24 30 35 37 35 31 27 26 23 22 21 18 16 16 13 11 14 16 17 17 18 19 20 20 21
5 5 3 4 3 3 8 18 20 13 12 17 15 31 3 8 8 21 27 27 33 39 40 39 38 34 30 28 27 27 24 19 17 17 17 17 17 19 19 19 20 20 20 19
6 5 2 2 3 3 6 1 8 18 22 20 16 27 17 15 23 31 29 26 32 38 41 42 40 37 34 31 30 28 28 25 23 22 20 19 19 20 21 20 19 20 19 18
6 4 3 4 4 7 6 6 8 9 9 20 25 25 28 27 25 34 32 35 37 34 36 43 43 40 38 36 34 34 33 31 29 28 26 23 21 21 21 22 20 20 20 20
4 4 3 3 5 8 5 2 6 5 7 7 16 15 10 5 3 6 15 13 22 32 32 37 42 42 42 40 38 39 38 37 36 34 31 27 25 23 22 22 22 20 19 19
7 4 12 5 4 8 11 4 9 5 7 6 9 12 6 6 9 11 13 12 11 18 29 32 37 42 42 44 43 42 42 42 38 36 34 32 29 27 24 23 23 22 21 21
12 10 6 4 6 13 13 8 9 6 6 9 10 8 6 9 11 15 14 17 15 18 20 30 35 39 43 47 46 45 45 40 39 38 38 36 33 32 30 27 25 24 24 23
6 7 7 11 9 3 22 10 27 5 4 7 10 10 15 13 15 17 15 14 15 15 13 23 32 35 42 47 49 48 43 42 41 41 41 40 37 35 33 31 30 29 28 27
3 3 3 3 9 12 16 26 27 20 23 21 20 22 22 25 25 26 20 17 16 15 14 16 28 34 40 44 49 48 44 42 43 44 43 42 41 39 38 36 34 33 32 31
5 11 6 6 8 2 12 26 30 31 29 30 30 31 30 29 31 29 26 22 18 17 16 17 22 30 36 39 45 48 48 45 44 46 45 45 44 43 41 40 38 37 34 32
8 7 9 10 9 7 10 21 23 26 25 25 24 24 24 22 24 23 24 24 18 18 19 21 24 27 32 37 40 46 49 48 46 47 49 48 48 46 44 42 40 38 36 34
Wind_Direction
184 107 202 216 195 200 162 224 263 273 291 272 237 270 276 236 233 236 238 237 234 228 254 298 318 325 335 340 341 349 344 342 343 351 344 346 334 319 304 283 263 251 217 196
42 231 224 170 167 159 119 97 280 283 223 248 308 289 283 254 233 227 226 225 224 213 248 294 320 329 344 345 347 352 349 340 347 352 351 353 344 335 320 274 234 237 198 185
182 280 166 146 149 156 149 166 226 242 324 277 322 292 337 318 345 223 219 219 207 218 257 301 323 336 347 347 352 357 349 350 348 355 355 346 335 355 357 305 223 212 190 176
235 204 171 147 177 141 221 172 162 339 31 271 28 280 309 322 319 203 204 200 197 219 252 302 323 340 352 351 353 358 353 350 355 354 0 353 344 348 334 45 95 208 167 181
242 168 162 165 197 172 207 141 133 92 38 6 340 64 271 347 312 240 212 205 209 213 235 296 327 348 355 354 357 360 354 352 4 1 358 359 3 357 46 116 109 159 161 173
169 208 175 166 71 81 133 94 46 49 67 3 245 128 286 233 220 283 212 214 207 200 214 282 331 354 359 2 4 4 0 4 8 12 360 8 17 37 74 108 122 156 164 168
79 223 247 146 101 25 106 86 339 346 10 225 164 67 247 255 242 220 204 203 198 197 205 210 334 2 8 13 15 12 9 15 16 16 7 22 44 63 86 101 115 145 148 164
159 268 178 190 201 171 176 166 164 219 224 278 89 236 252 219 296 216 208 194 189 197 199 185 9 11 21 25 26 19 23 22 20 38 24 22 68 83 81 104 109 122 123 125
154 172 75 30 62 150 182 193 170 106 31 36 230 280 295 168 99 127 163 184 197 199 200 182 140 36 40 34 39 33 41 39 30 34 51 30 82 93 97 97 124 121 113 148
195 102 338 183 121 35 154 161 78 357 142 268 278 273 245 231 220 195 191 203 207 204 205 192 166 92 75 42 48 45 53 53 51 52 78 73 73 92 104 102 100 136 126 119
168 110 221 93 206 180 142 206 135 123 160 183 295 263 212 223 198 205 203 208 209 208 206 198 185 138 121 82 66 69 60 72 73 72 80 89 96 95 111 114 119 120 122 119
149 97 182 195 8 189 188 188 168 149 213 223 163 272 212 234 263 215 205 210 214 213 205 200 196 167 144 147 116 90 79 92 94 92 90 92 96 101 109 115 119 121 122 124
177 225 62 349 354 348 218 202 168 116 84 206 152 257 230 279 281 217 197 205 209 209 202 200 199 188 162 173 147 121 103 112 96 94 97 99 98 100 96 100 106 110 110 111
136 164 173 190 156 127 200 194 183 153 161 175 232 296 261 244 230 223 216 208 207 207 204 203 201 196 182 179 176 154 132 129 114 113 107 107 105 105 107 104 106 107 112 117
167 188 150 266 189 182 217 185 184 205 215 196 256 232 251 242 237 224 226 218 208 207 206 207 205 199 192 186 185 182 169 147 147 151 146 134 126 123 118 118 121 119 118 118
264 162 117 298 234 216 238 224 216 216 232 240 253 272 250 258 256 251 239 225 214 214 213 210 209 204 200 195 190 192 186 179 184 186 179 159 145 137 134 132 130 130 129 127
160 139 131 244 41 28 294 226 215 220 223 217 228 244 178 258 240 245 244 234 228 224 220 214 211 208 205 200 196 195 190 188 184 181 180 174 164 156 151 149 145 142 141 139
157 153 147 197 57 262 244 150 214 217 239 216 243 256 257 254 269 267 261 251 244 235 229 225 218 211 208 205 202 200 195 192 188 184 186 185 178 172 164 161 157 153 150 146
156 140 160 173 209 310 292 209 168 177 273 213 229 250 258 270 284 282 273 251 249 249 245 238 227 217 209 206 204 202 201 195 193 192 191 194 192 188 180 172 172 167 163 159
157 178 167 147 184 221 243 96 156 134 287 197 204 240 257 160 256 265 285 292 260 246 243 238 231 218 213 207 206 205 204 200 198 196 194 195 198 197 193 186 181 179 176 173
167 185 205 169 225 278 250 165 146 118 234 160 175 219 191 186 230 277 285 292 308 260 244 238 231 220 214 209 208 209 207 208 202 198 197 198 198 201 200 198 193 190 190 190
172 167 189 153 200 255 185 137 181 209 171 172 177 182 218 273 310 308 301 284 283 280 251 232 229 221 215 211 210 212 213 210 206 202 201 201 202 201 202 203 204 201 201 202
208 189 174 195 206 203 189 215 205 189 186 217 229 258 309 302 314 322 311 288 282 277 261 234 227 222 216 213 213 216 217 213 208 207 207 205 204 205 206 206 207 210 210 209
236 199 193 105 243 227 227 234 241 241 251 266 274 284 284 286 293 301 301 299 286 277 255 236 228 223 218 216 216 220 220 218 213 211 210 210 209 208 209 211 212 214 217 217
175 150 183 263 267 325 253 236 244 255 263 273 282 289 292 288 285 286 279 290 288 275 260 237 229 228 226 222 220 219 221 221 218 216 215 214 214 214 214 216 218 218 220 226
185 176 186 225 201 202 233 255 257 258 267 287 290 298 301 297 290 293 290 275 274 278 265 251 240 234 232 229 226 222 221 223 221 220 218 217 217 217 218 220 222 223 225 227
Height
1505 1509 1516 1506 1506 1504 1504 1507 1509 1506 1505 1506 1502 1493 1480 1481 1481 1480 1482 1483 1484 1485 1486 1484 1483 1479 1475 1471 1465 1459 1451 1445 1438 1432 1426 1419 1416 1412 1409 1409 1409 1410 1413 1421
1508 1509 1500 1500 1503 1503 1505 1510 1512 1508 1505 1506 1500 1485 1474 1471 1471 1472 1474 1478 1481 1482 1483 1482 1480 1477 1473 1469 1464 1457 1450 1443 1436 1430 1425 1419 1415 1410 1406 1405 1406 1408 1411 1418
1506 1501 1500 1500 1502 1505 1507 1514 1518 1513 1508 1503 1504 1487 1476 1470 1468 1469 1471 1476 1478 1479 1481 1480 1478 1475 1472 1468 1463 1456 1449 1441 1436 1430 1424 1420 1415 1410 1407 1405 1404 1407 1410 1418
1503 1499 1500 1500 1501 1504 1507 1507 1510 1510 1515 1522 1509 1516 1488 1476 1472 1470 1471 1473 1475 1476 1478 1477 1476 1473 1470 1467 1463 1457 1449 1440 1434 1430 1424 1420 1415 1410 1407 1407 1407 1408 1413 1420
1500 1500 1501 1501 1500 1501 1505 1507 1508 1510 1516 1518 1517 1532 1485 1478 1473 1470 1469 1472 1473 1474 1476 1475 1474 1473 1470 1467 1462 1456 1449 1440 1435 1431 1426 1422 1416 1412 1409 1409 1410 1412 1417 1423
1498 1498 1499 1499 1502 1501 1505 1509 1512 1517 1522 1536 1524 1524 1492 1488 1471 1466 1466 1468 1470 1472 1473 1472 1473 1473 1470 1466 1463 1457 1449 1441 1436 1431 1428 1423 1419 1415 1413 1412 1413 1417 1421 1426
1499 1500 1499 1499 1503 1505 1505 1511 1527 1530 1534 1519 1515 1520 1482 1467 1464 1462 1463 1466 1469 1470 1471 1470 1471 1472 1470 1466 1463 1458 1450 1442 1438 1433 1431 1426 1422 1418 1418 1417 1417 1420 1422 1427
1503 1505 1500 1498 1498 1501 1507 1508 1517 1517 1520 1511 1514 1508 1473 1461 1459 1459 1461 1465 1468 1470 1469 1469 1469 1471 1469 1467 1464 1460 1453 1446 1442 1438 1435 1430 1425 1423 1421 1422 1424 1426 1428 1430
1495 1494 1497 1498 1497 1498 1505 1509 1505 1517 1542 1529 1501 1485 1462 1461 1461 1461 1462 1465 1468 1469 1469 1468 1467 1469 1470 1467 1465 1462 1458 1451 1447 1442 1438 1435 1430 1428 1427 1428 1430 1430 1432 1433
1479 1495 1497 1498 1498 1499 1500 1502 1512 1524 1525 1519 1494 1487 1473 1461 1461 1461 1462 1463 1466 1468 1469 1467 1467 1467 1469 1468 1466 1464 1462 1457 1452 1447 1443 1440 1438 1434 1433 1433 1433 1435 1438 1439
1476 1481 1502 1500 1498 1497 1504 1504 1504 1506 1509 1502 1504 1476 1455 1451 1452 1455 1455 1457 1461 1465 1466 1467 1467 1466 1469 1468 1467 1466 1465 1462 1459 1455 1449 1445 1443 1441 1438 1439 1439 1440 1441 1443
1474 1486 1499 1491 1491 1491 1492 1493 1495 1498 1503 1509 1503 1479 1446 1447 1448 1447 1448 1451 1457 1461 1463 1465 1467 1467 1468 1468 1469 1467 1467 1466 1464 1462 1459 1456 1453 1451 1449 1446 1446 1447 1448 1450
1471 1494 1509 1499 1496 1493 1492 1489 1488 1493 1499 1501 1501 1467 1445 1446 1446 1445 1445 1448 1452 1456 1460 1462 1463 1465 1466 1467 1469 1469 1469 1469 1468 1466 1465 1463 1461 1460 1461 1460 1460 1460 1462 1462
1467 1480 1477 1475 1469 1482 1488 1486 1486 1485 1501 1487 1472 1456 1445 1444 1445 1444 1444 1445 1448 1451 1455 1457 1459 1462 1464 1465 1467 1469 1470 1471 1471 1470 1469 1469 1468 1467 1468 1469 1470 1470 1471 1471
1468 1472 1480 1477 1475 1478 1478 1479 1483 1480 1470 1474 1455 1454 1431 1439 1439 1438 1439 1441 1444 1446 1450 1452 1454 1457 1461 1462 1464 1466 1469 1472 1472 1473 1473 1472 1472 1472 1473 1474 1474 1475 1478 1478
1468 1475 1482 1487 1476 1480 1481 1477 1474 1473 1465 1461 1459 1438 1433 1430 1434 1432 1432 1435 1437 1439 1441 1445 1449 1453 1455 1458 1460 1463 1465 1468 1472 1473 1474 1474 1474 1476 1477 1477 1478 1480 1481 1483
1470 1475 1477 1470 1479 1490 1480 1462 1458 1452 1450 1449 1459 1416 1422 1424 1427 1424 1424 1427 1428 1429 1433 1436 1440 1444 1448 1452 1455 1458 1461 1465 1469 1471 1474 1475 1476 1476 1478 1480 1480 1482 1484 1486
1466 1470 1473 1478 1496 1484 1435 1435 1437 1439 1430 1436 1431 1411 1416 1418 1418 1415 1419 1419 1418 1420 1424 1428 1433 1438 1443 1447 1451 1454 1457 1461 1465 1469 1473 1475 1476 1477 1477 1480 1482 1483 1485 1487
1455 1465 1472 1471 1492 1453 1427 1426 1435 1436 1416 1416 1417 1412 1412 1414 1415 1402 1409 1407 1407 1408 1413 1417 1422 1429 1435 1441 1445 1448 1451 1455 1459 1463 1468 1473 1476 1478 1479 1479 1482 1483 1484 1486
1453 1454 1457 1478 1478 1468 1425 1420 1422 1424 1427 1404 1407 1409 1412 1415 1419 1403 1400 1400 1399 1400 1404 1408 1414 1422 1428 1434 1439 1442 1445 1448 1451 1456 1462 1467 1473 1476 1479 1480 1481 1483 1485 1486
1447 1452 1445 1463 1465 1447 1420 1419 1422 1433 1413 1399 1402 1405 1407 1410 1404 1398 1397 1396 1396 1397 1399 1402 1407 1412 1419 1426 1432 1435 1438 1440 1447 1453 1458 1462 1467 1472 1476 1479 1480 1481 1483 1486
1423 1437 1440 1449 1449 1433 1405 1417 1417 1400 1396 1397 1400 1402 1403 1401 1399 1397 1394 1393 1394 1395 1393 1395 1399 1404 1412 1418 1423 1428 1431 1438 1443 1447 1451 1456 1461 1465 1470 1474 1478 1479 1480 1483
1416 1407 1418 1413 1402 1395 1397 1392 1392 1392 1395 1397 1398 1399 1399 1398 1396 1395 1393 1392 1391 1391 1390 1392 1394 1398 1404 1410 1415 1420 1427 1433 1438 1442 1445 1450 1454 1459 1463 1467 1471 1475 1477 1478
1407 1404 1408 1409 1388 1391 1392 1392 1391 1390 1391 1393 1394 1395 1396 1395 1393 1391 1391 1390 1389 1388 1387 1388 1391 1393 1396 1402 1407 1414 1422 1427 1432 1435 1439 1444 1447 1451 1455 1459 1463 1467 1471 1473
1391 1397 1402 1402 1386 1388 1387 1387 1387 1386 1389 1389 1389 1390 1388 1388 1387 1386 1385 1385 1385 1385 1385 1384 1385 1389 1392 1396 1400 1407 1413 1420 1425 1429 1432 1436 1441 1444 1447 1452 1455 1458 1463 1468
1380 1382 1387 1379 1374 1376 1378 1381 1382 1384 1385 1385 1385 1384 1384 1382 1382 1380 1378 1379 1381 1381 1382 1382 1382 1383 1386 1391 1394 1398 1404 1411 1417 1421 1424 1427 1432 1437 1440 1444 1449 1453 1457 1461